Regional Weather Roundup
Issued by NWS Northern Indiana

Home | Current Version | Previous Version | Graphics & Text | Print | Product List | Glossary On
Versions: 1 2 3 4 5 6 7 8 9 10 11 12 13 14 15 16 17 18 19 20 21 22 23 24 25 26 27 28 29 30 31 32 33 34 35 36 37 38 39 40 41 42 43 44 45 46 47 48 49 50
000
ASUS43 KIWX 231200
RWRIWX

KIWX WEATHER ROUNDUP
NATIONAL WEATHER SERVICE NORTHERN INDIANA
800 AM EDT TUE MAY 23 2017

NOTE: "FAIR" INDICATES FEW OR NO CLOUDS BELOW 12,000 FEET WITH NO
SIGNIFICANT WEATHER AND/OR OBSTRUCTIONS TO VISIBILITY.

* THESE STATIONS ARE NOT UNDER NWS QUALITY CONTROL. THEY ALSO MAY NOT
  REPORT WEATHER SUCH AS PRECIPITATION OR FOG.

INZ001>027-231300-
NORTHERN INDIANA

CITY           SKY/WX    TMP DP  RH WIND       PRES   REMARKS
GARY*          LGT RAIN  61  54  77 S8        29.84S
MICHIGAN CITY* RAIN      59  52  77 S6        29.85S
SOUTH BEND     CLOUDY    58  53  84 SW8       29.86S
6HR MIN TEMP:  57; 6HR MAX TEMP:  62; 6HR PCP: TRACE;

ELKHART*       PTSUNNY   59  52  77 S5        29.85F
GOSHEN         CLOUDY    60  51  72 S6        29.86F
6HR MIN TEMP:  58; 6HR MAX TEMP:  61; 6HR PCP: TRACE;

MONTICELLO*    CLOUDY    58  53  81 CALM      29.85F
6HR MIN TEMP:  57; 6HR MAX TEMP:  60;

ANGOLA*        CLOUDY    57  46  67 CALM      29.88S
FORT WAYNE     CLOUDY    58  51  78 CALM      29.88S
6HR MIN TEMP:  56; 6HR MAX TEMP:  59; 6HR PCP: TRACE;

PERU/GRISSOM   CLOUDY    59  51  73 CALM      29.86S
6HR MIN TEMP:  57; 6HR MAX TEMP:  60;


$$
INZ028>050-231300-
CENTRAL INDIANA

CITY           SKY/WX    TMP DP  RH WIND       PRES   REMARKS
LAFAYETTE      PTSUNNY   58  56  93 CALM      29.86S
6HR MIN TEMP:  55; 6HR MAX TEMP:  59;

KOKOMO*        CLOUDY    58  52  80 SE5       29.88S
6HR MIN TEMP:  57; 6HR MAX TEMP:  60;

MUNCIE*        CLOUDY    60  48  64 S5        29.88S
6HR MIN TEMP:  56; 6HR MAX TEMP:  61;

INDIANAPOLIS   CLOUDY    58  49  72 SE6       29.87S
6HR MIN TEMP:  56; 6HR MAX TEMP:  59;


$$
MIZ043>046-050>051-056>058-064>065-071>073-077>080-231300-
SOUTHWEST LOWER MICHIGAN

CITY           SKY/WX    TMP DP  RH WIND       PRES   REMARKS
BATTLE CREEK   CLOUDY    59  52  77 S9        29.87R
6HR MIN TEMP:  58; 6HR MAX TEMP:  60; 6HR PCP: TRACE;

BENTON HARBOR  CLOUDY    60  53  77 S6        29.83S
6HR MIN TEMP:  58; 6HR MAX TEMP:  62; 6HR PCP: TRACE;

COLDWATER*     CLOUDY    58  52  80 S6        29.87F
6HR MIN TEMP:  56; 6HR MAX TEMP:  60;

HILLSDALE*     CLOUDY    55  48  76 CALM      29.88S
HOLLAND        CLOUDY    60  53  77 SW6       29.84S
6HR MIN TEMP:  59; 6HR MAX TEMP:  61; 6HR PCP: TRACE;

GRAND RAPIDS   CLOUDY    59  53  80 S6        29.84S
6HR MIN TEMP:  57; 6HR MAX TEMP:  62; 6HR PCP: TRACE;

KALAMAZOO      CLOUDY    59  51  75 S8        29.86S
6HR MIN TEMP:  59; 6HR MAX TEMP:  61; 6HR PCP: TRACE;

STURGIS*       CLOUDY    57  53  87 S5        29.86F
6HR MIN TEMP:  56; 6HR MAX TEMP:  59; 6HR PCP:  0.02;

THREE RIVERS*  CLOUDY    58  54  84 W5        29.87S
6HR MIN TEMP:  57; 6HR MAX TEMP:  60;


$$
OHZ001>008-015>018-024>025-231300-
NORTHWEST OHIO

CITY           SKY/WX    TMP DP  RH WIND       PRES   REMARKS
DEFIANCE       CLOUDY    57  50  77 S5        29.89S
6HR MIN TEMP:  52; 6HR MAX TEMP:  57;

FINDLAY        MOSUNNY   57  49  74 SE3       29.89F
6HR MIN TEMP:  53; 6HR MAX TEMP:  57;

TOLEDO EXPRESS MOSUNNY   58  50  75 S6        29.89S
6HR MIN TEMP:  53; 6HR MAX TEMP:  58;

TOLEDO METCALF CLOUDY    58  51  78 S7        29.90F
6HR MIN TEMP:  54; 6HR MAX TEMP:  58;

LIMA           MOSUNNY   56  50  80 S6        29.89F
6HR MIN TEMP:  51; 6HR MAX TEMP:  56;


$$
AND FOR LAKE MICHIGAN COASTAL AND OPEN LAKE BUOY OBSERVATIONS

STATION/POSITION TEMP    WIND        PRES    VSBY  WAVE
                 AIR SEA DIR/SP/G                  HT/PER
                 (F)     (DEG/KT/KT) (MB)    (MI)  (FT/S)
CALUMET HARBOR    60     200/  7/  9 1009.5R
MICHIGAN CITY     60     160/ 10/ 12   N/A
BURNS HARBOR      60     190/ 10/ 14 1010.8S
SOUTH LAKE BUOY   49 45  210/  8/  8 1009.6          1/ 4
4 MI NW BRIDGMAN  58 55  190/  8/ 10 1010.5S         1/ 3
MICHIGAN CITY     58 53  200/ 12/ 14   N/A           1/ 2

$$
&&




USA.gov is the U.S. government's official web portal to all federal, state and local government web resources and services.